Time,TemperatureF,DewpointF,PressureIn,WindDirection,WindDirectionDegrees,WindSpeedMPH,WindSpeedGustMPH,Humidity,HourlyPrecipIn,Conditions,Clouds,dailyrainin,SoftwareType,DateUTC
2013-03-11 00:00:00,31.2,26.0,30.30,SE,132,0.0,0.0,81,0.00,CLR,,0.00,WeatherDisplay:10.37,2013-03-11 04:00:00,
2013-03-11 00:03:00,31.2,26.0,30.30,SE,132,0.0,0.0,81,0.00,CLR,,0.00,WeatherDisplay:10.37,2013-03-11 04:03:00,
2013-03-11 00:08:00,31.1,26.0,30.30,SE,132,0.0,0.0,81,0.00,CLR,,0.00,WeatherDisplay:10.37,2013-03-11 04:08:00,
2013-03-11 00:13:00,31.0,26.7,30.29,SE,132,0.0,0.0,84,0.00,CLR,,0.00,WeatherDisplay:10.37,2013-03-11 04:13:00,
2013-03-11 00:18:00,31.1,26.8,30.29,SE,132,0.0,0.0,84,0.00,CLR,,0.00,WeatherDisplay:10.37,2013-03-11 04:18:00,
2013-03-11 00:23:00,31.1,26.8,30.29,SE,132,0.0,0.0,84,0.00,CLR,,0.00,WeatherDisplay:10.37,2013-03-11 04:23:00,
2013-03-11 00:28:00,31.3,27.0,30.29,SE,132,0.0,0.0,84,0.00,CLR,,0.00,WeatherDisplay:10.37,2013-03-11 04:28:00,
2013-03-11 00:33:00,31.1,26.8,30.29,SE,132,0.0,0.0,84,0.00,CLR,,0.00,WeatherDisplay:10.37,2013-03-11 04:33:00,
2013-03-11 00:38:00,31.3,27.0,30.29,SE,132,0.0,0.0,84,0.00,CLR,,0.00,WeatherDisplay:10.37,2013-03-11 04:38:00,
2013-03-11 00:43:00,31.1,26.8,30.29,SE,132,0.0,0.0,84,0.00,CLR,,0.00,WeatherDisplay:10.37,2013-03-11 04:43:00,
2013-03-11 00:48:00,31.2,26.9,30.29,SE,132,0.0,0.0,84,0.00,CLR,,0.00,WeatherDisplay:10.37,2013-03-11 04:48:00,
2013-03-11 00:53:00,31.1,26.8,30.29,SE,132,0.0,0.0,84,0.00,CLR,,0.00,WeatherDisplay:10.37,2013-03-11 04:53:00,
2013-03-11 00:58:00,31.1,26.8,30.29,SE,132,0.0,0.0,84,0.00,CLR,,0.00,WeatherDisplay:10.37,2013-03-11 04:58:00,
2013-03-11 01:03:00,31.2,26.9,30.29,SE,132,0.0,0.0,84,0.00,CLR,,0.00,WeatherDisplay:10.37,2013-03-11 05:03:00,
2013-03-11 01:08:00,31.1,26.8,30.29,SE,132,0.0,0.0,84,0.00,CLR,,0.00,WeatherDisplay:10.37,2013-03-11 05:08:00,
2013-03-11 01:13:00,31.1,26.8,30.29,SE,132,0.0,0.0,84,0.00,FEW,,0.00,WeatherDisplay:10.37,2013-03-11 05:13:00,
2013-03-11 01:18:00,31.0,26.7,30.29,SE,132,0.0,0.0,84,0.00,FEW,,0.00,WeatherDisplay:10.37,2013-03-11 05:18:00,
2013-03-11 01:23:00,31.0,26.7,30.29,SE,132,0.0,0.0,84,0.00,FEW,,0.00,WeatherDisplay:10.37,2013-03-11 05:23:00,
2013-03-11 01:28:00,30.9,26.6,30.29,SE,132,0.0,0.0,84,0.00,FEW,,0.00,WeatherDisplay:10.37,2013-03-11 05:28:00,
2013-03-11 01:33:00,30.9,26.6,30.29,SE,132,0.0,0.0,84,0.00,FEW,,0.00,WeatherDisplay:10.37,2013-03-11 05:33:00,
2013-03-11 01:38:00,30.9,26.6,30.29,SE,132,0.0,0.0,84,0.00,FEW,,0.00,WeatherDisplay:10.37,2013-03-11 05:38:00,
2013-03-11 01:43:00,30.9,26.6,30.29,SE,132,0.0,0.0,84,0.00,FEW,,0.00,WeatherDisplay:10.37,2013-03-11 05:43:00,
2013-03-11 01:48:00,31.0,26.7,30.29,SE,132,0.0,0.0,84,0.00,FEW,,0.00,WeatherDisplay:10.37,2013-03-11 05:48:00,
2013-03-11 01:53:00,30.8,26.5,30.29,SE,132,1.1,0.0,84,0.00,FEW,,0.00,WeatherDisplay:10.37,2013-03-11 05:53:00,
2013-03-11 01:58:00,30.8,26.5,30.29,SE,132,0.0,0.0,84,0.00,FEW,,0.00,WeatherDisplay:10.37,2013-03-11 05:58:00,
2013-03-11 02:03:00,30.6,26.3,30.30,SE,132,0.0,0.0,84,0.00,SCT,,0.00,WeatherDisplay:10.37,2013-03-11 06:03:00,
2013-03-11 02:08:00,30.8,26.5,30.30,SE,132,0.0,0.0,84,0.00,SCT,,0.00,WeatherDisplay:10.37,2013-03-11 06:08:00,
2013-03-11 02:13:00,30.6,26.3,30.30,SE,132,0.0,0.0,84,0.00,SCT,,0.00,WeatherDisplay:10.37,2013-03-11 06:13:00,
2013-03-11 02:18:00,30.9,26.6,30.30,SE,132,1.1,0.0,84,0.00,SCT,,0.00,WeatherDisplay:10.37,2013-03-11 06:18:00,
2013-03-11 02:23:00,30.8,26.5,30.30,SE,132,0.0,0.0,84,0.00,SCT,,0.00,WeatherDisplay:10.37,2013-03-11 06:23:00,
2013-03-11 02:28:00,30.7,26.4,30.30,SE,132,0.0,0.0,84,0.00,SCT,,0.00,WeatherDisplay:10.37,2013-03-11 06:28:00,
2013-03-11 02:33:00,30.8,26.5,30.30,SE,132,0.0,0.0,84,0.00,SCT,,0.00,WeatherDisplay:10.37,2013-03-11 06:33:00,
2013-03-11 02:38:00,30.5,26.2,30.30,SE,132,0.0,0.0,84,0.00,SCT,,0.00,WeatherDisplay:10.37,2013-03-11 06:38:00,
2013-03-11 02:43:00,30.5,26.2,30.30,SE,132,0.0,0.0,84,0.00,SCT,,0.00,WeatherDisplay:10.37,2013-03-11 06:43:00,
2013-03-11 02:48:00,30.4,26.1,30.30,SE,132,0.0,0.0,84,0.00,SCT,,0.00,WeatherDisplay:10.37,2013-03-11 06:48:00,
2013-03-11 02:53:00,30.1,25.8,30.30,SE,132,0.0,0.1,84,0.00,SCT,,0.00,WeatherDisplay:10.37,2013-03-11 06:53:00,
2013-03-11 02:58:00,30.3,26.0,30.30,SE,132,0.0,0.0,84,0.00,SCT,,0.00,WeatherDisplay:10.37,2013-03-11 06:58:00,
2013-03-11 03:03:00,30.2,25.9,30.30,SE,132,0.0,0.0,84,0.00,SCT,,0.00,WeatherDisplay:10.37,2013-03-11 07:03:00,
2013-03-11 03:08:00,29.9,25.7,30.30,SE,132,0.0,0.0,84,0.00,SCT,,0.00,WeatherDisplay:10.37,2013-03-11 07:08:00,
2013-03-11 03:13:00,30.1,25.8,30.30,SE,132,0.0,0.0,84,0.00,SCT,,0.00,WeatherDisplay:10.37,2013-03-11 07:13:00,
2013-03-11 03:18:00,30.2,25.9,30.30,SE,132,0.0,0.0,84,0.00,SCT,,0.00,WeatherDisplay:10.37,2013-03-11 07:18:00,
2013-03-11 03:23:00,30.3,27.2,30.27,SE,132,0.0,0.0,88,0.00,BKN,,0.00,WeatherDisplay:10.37,2013-03-11 07:23:00,
2013-03-11 03:28:00,30.4,27.3,30.27,SE,132,0.0,0.0,88,0.00,BKN,,0.00,WeatherDisplay:10.37,2013-03-11 07:28:00,
2013-03-11 03:33:00,30.3,27.2,30.27,SE,132,0.0,0.0,88,0.00,BKN,,0.00,WeatherDisplay:10.37,2013-03-11 07:33:00,
2013-03-11 03:38:00,30.3,27.2,30.27,SE,132,0.0,0.0,88,0.00,BKN,,0.00,WeatherDisplay:10.37,2013-03-11 07:38:00,
2013-03-11 03:43:00,30.2,27.1,30.27,SE,132,0.0,0.0,88,0.00,BKN,,0.00,WeatherDisplay:10.37,2013-03-11 07:43:00,
2013-03-11 03:48:00,30.1,27.0,30.27,SE,132,0.0,0.0,88,0.00,BKN,,0.00,WeatherDisplay:10.37,2013-03-11 07:48:00,
2013-03-11 03:53:00,30.1,27.0,30.27,SE,132,0.0,0.0,88,0.00,BKN,,0.00,WeatherDisplay:10.37,2013-03-11 07:53:00,
2013-03-11 03:58:00,29.8,26.7,30.27,SE,132,0.0,0.0,88,0.00,BKN,,0.00,WeatherDisplay:10.37,2013-03-11 07:58:00,
2013-03-11 04:03:00,30.0,26.9,30.27,SE,132,0.0,0.0,88,0.00,BKN,,0.00,WeatherDisplay:10.37,2013-03-11 08:03:00,
2013-03-11 04:08:00,30.0,26.9,30.27,SE,132,0.0,0.0,88,0.00,BKN,,0.00,WeatherDisplay:10.37,2013-03-11 08:08:00,
2013-03-11 04:13:00,30.1,27.0,30.24,SE,132,0.0,0.0,88,0.00,CLR,,0.00,WeatherDisplay:10.37,2013-03-11 08:13:00,
2013-03-11 04:18:00,29.6,26.5,30.24,SE,132,0.0,0.0,88,0.00,CLR,,0.00,WeatherDisplay:10.37,2013-03-11 08:18:00,
2013-03-11 04:23:00,29.6,26.5,30.24,SE,132,0.0,0.0,88,0.00,CLR,,0.00,WeatherDisplay:10.37,2013-03-11 08:23:00,
2013-03-11 04:28:00,29.6,26.5,30.24,SE,132,0.0,0.0,88,0.00,CLR,,0.00,WeatherDisplay:10.37,2013-03-11 08:28:00,
2013-03-11 04:33:00,29.6,26.5,30.24,SE,132,0.0,0.0,88,0.00,CLR,,0.00,WeatherDisplay:10.37,2013-03-11 08:33:00,
2013-03-11 04:38:00,29.3,26.2,30.24,SE,132,0.0,0.0,88,0.00,CLR,,0.00,WeatherDisplay:10.37,2013-03-11 08:38:00,
2013-03-11 04:43:00,29.3,26.2,30.24,SE,132,0.0,0.0,88,0.00,CLR,,0.00,WeatherDisplay:10.37,2013-03-11 08:43:00,
2013-03-11 04:48:00,29.3,26.2,30.24,SE,132,0.0,0.0,88,0.00,CLR,,0.00,WeatherDisplay:10.37,2013-03-11 08:48:00,
2013-03-11 04:53:00,29.4,26.3,30.24,SE,132,0.0,0.0,88,0.00,CLR,,0.00,WeatherDisplay:10.37,2013-03-11 08:53:00,
2013-03-11 04:58:00,29.3,26.2,30.24,SE,132,0.0,0.0,88,0.00,CLR,,0.00,WeatherDisplay:10.37,2013-03-11 08:58:00,
2013-03-11 05:03:00,29.3,26.2,30.24,SE,132,0.0,0.0,88,0.00,CLR,,0.00,WeatherDisplay:10.37,2013-03-11 09:03:00,
2013-03-11 05:08:00,29.1,26.0,30.24,SE,132,0.0,0.0,88,0.00,CLR,,0.00,WeatherDisplay:10.37,2013-03-11 09:08:00,
2013-03-11 05:13:00,29.3,28.0,30.23,SE,132,0.0,0.0,95,0.00,CLR,,0.00,WeatherDisplay:10.37,2013-03-11 09:13:00,
2013-03-11 05:18:00,29.0,27.7,30.23,SE,132,0.0,0.0,95,0.00,CLR,,0.00,WeatherDisplay:10.37,2013-03-11 09:18:00,
2013-03-11 05:23:00,29.1,27.8,30.23,SE,132,0.0,0.0,95,0.00,CLR,,0.00,WeatherDisplay:10.37,2013-03-11 09:23:00,
2013-03-11 05:28:00,28.8,27.5,30.23,SE,132,0.0,0.0,95,0.00,CLR,,0.00,WeatherDisplay:10.37,2013-03-11 09:28:00,
2013-03-11 05:33:00,28.9,27.6,30.23,SE,132,0.0,0.0,95,0.00,CLR,,0.00,WeatherDisplay:10.37,2013-03-11 09:33:00,
2013-03-11 05:38:00,28.7,27.4,30.23,SE,132,0.0,0.0,95,0.00,CLR,,0.00,WeatherDisplay:10.37,2013-03-11 09:38:00,
2013-03-11 05:43:00,28.7,27.4,30.23,SE,132,0.0,0.0,95,0.00,CLR,,0.00,WeatherDisplay:10.37,2013-03-11 09:43:00,
2013-03-11 05:48:00,28.8,27.5,30.23,SE,132,0.0,0.0,95,0.00,CLR,,0.00,WeatherDisplay:10.37,2013-03-11 09:48:00,
2013-03-11 05:53:00,28.9,27.6,30.23,SE,132,0.0,0.0,95,0.00,CLR,,0.00,WeatherDisplay:10.37,2013-03-11 09:53:00,
2013-03-11 05:58:00,28.5,27.3,30.23,SE,132,0.0,0.0,95,0.00,CLR,,0.00,WeatherDisplay:10.37,2013-03-11 09:58:00,
2013-03-11 06:03:00,28.3,27.1,30.23,SE,132,0.0,0.0,95,0.00,CLR,,0.00,WeatherDisplay:10.37,2013-03-11 10:03:00,
2013-03-11 06:08:00,28.1,26.9,30.23,SE,132,0.0,0.0,95,0.00,CLR,,0.00,WeatherDisplay:10.37,2013-03-11 10:08:00,
2013-03-11 06:13:00,28.3,27.1,30.23,SE,132,0.0,0.0,95,0.00,CLR,,0.00,WeatherDisplay:10.37,2013-03-11 10:13:00,
2013-03-11 06:18:00,28.1,26.9,30.23,SE,132,0.0,0.0,95,0.00,CLR,,0.00,WeatherDisplay:10.37,2013-03-11 10:18:00,
2013-03-11 06:23:00,28.1,26.9,30.23,SE,132,0.0,0.0,95,0.00,CLR,,0.00,WeatherDisplay:10.37,2013-03-11 10:23:00,
2013-03-11 06:28:00,28.4,27.2,30.23,SE,132,0.0,0.0,95,0.00,CLR,,0.00,WeatherDisplay:10.37,2013-03-11 10:28:00,
2013-03-11 06:33:00,28.3,27.1,30.23,SE,132,0.0,0.0,95,0.00,CLR,,0.00,WeatherDisplay:10.37,2013-03-11 10:33:00,
2013-03-11 06:38:00,28.5,27.3,30.23,SE,132,0.0,0.0,95,0.00,CLR,,0.00,WeatherDisplay:10.37,2013-03-11 10:38:00,
2013-03-11 06:43:00,28.6,27.4,30.23,SE,132,0.0,0.0,95,0.00,CLR,,0.00,WeatherDisplay:10.37,2013-03-11 10:43:00,
2013-03-11 06:48:00,28.8,27.5,30.23,SE,132,0.0,0.0,95,0.00,CLR,,0.00,WeatherDisplay:10.37,2013-03-11 10:48:00,
2013-03-11 06:53:00,28.9,27.6,30.23,SE,132,0.0,0.0,95,0.00,CLR,,0.00,WeatherDisplay:10.37,2013-03-11 10:53:00,
2013-03-11 06:58:00,28.6,27.4,30.23,SE,132,0.0,0.0,95,0.00,CLR,,0.00,WeatherDisplay:10.37,2013-03-11 10:58:00,
2013-03-11 07:03:00,28.7,27.4,30.23,SE,132,0.0,0.0,95,0.00,CLR,,0.00,WeatherDisplay:10.37,2013-03-11 11:03:00,
2013-03-11 07:08:00,28.9,27.6,30.23,SE,132,0.0,0.0,95,0.00,CLR,,0.00,WeatherDisplay:10.37,2013-03-11 11:08:00,
2013-03-11 07:13:00,29.0,27.7,30.23,SE,132,0.0,0.0,95,0.00,CLR,,0.00,WeatherDisplay:10.37,2013-03-11 11:13:00,
2013-03-11 07:19:00,29.2,27.9,30.23,SE,132,0.0,0.0,95,0.00,CLR,,0.00,WeatherDisplay:10.37,2013-03-11 11:19:00,
2013-03-11 07:24:00,29.5,28.2,30.23,SE,132,0.0,0.0,95,0.00,CLR,,0.00,WeatherDisplay:10.37,2013-03-11 11:24:00,
2013-03-11 07:29:00,29.5,28.2,30.23,SE,132,0.0,0.0,95,0.00,CLR,,0.00,WeatherDisplay:10.37,2013-03-11 11:29:00,
2013-03-11 07:34:00,29.6,28.3,30.23,SE,132,0.0,0.0,95,0.00,CLR,,0.00,WeatherDisplay:10.37,2013-03-11 11:34:00,
2013-03-11 07:39:00,29.6,28.3,30.23,SE,132,0.0,0.0,95,0.00,CLR,,0.00,WeatherDisplay:10.37,2013-03-11 11:39:00,
2013-03-11 07:44:00,30.0,28.7,30.23,SE,132,0.0,0.0,95,0.00,CLR,,0.00,WeatherDisplay:10.37,2013-03-11 11:44:00,
2013-03-11 07:49:00,30.1,28.8,30.23,SE,132,0.0,0.0,95,0.00,CLR,,0.00,WeatherDisplay:10.37,2013-03-11 11:49:00,
2013-03-11 07:54:00,30.2,28.9,30.23,SE,132,0.0,0.0,95,0.00,CLR,,0.00,WeatherDisplay:10.37,2013-03-11 11:54:00,
2013-03-11 07:59:00,30.8,29.5,30.23,SE,132,0.0,0.0,95,0.00,CLR,,0.00,WeatherDisplay:10.37,2013-03-11 11:59:00,
2013-03-11 08:04:00,31.4,30.1,30.23,SE,132,0.0,0.0,95,0.00,CLR,,0.00,WeatherDisplay:10.37,2013-03-11 12:04:00,
2013-03-11 08:09:00,32.3,31.0,30.23,SE,132,0.0,0.0,95,0.00,CLR,,0.00,WeatherDisplay:10.37,2013-03-11 12:09:00,
2013-03-11 08:14:00,32.5,30.4,30.23,SE,132,0.0,0.0,92,0.00,CLR,,0.00,WeatherDisplay:10.37,2013-03-11 12:14:00,
2013-03-11 08:19:00,32.5,30.4,30.23,SE,132,1.1,1.1,92,0.00,CLR,,0.00,WeatherDisplay:10.37,2013-03-11 12:19:00,
2013-03-11 08:24:00,32.6,30.5,30.23,SE,132,0.0,0.0,92,0.00,CLR,,0.00,WeatherDisplay:10.37,2013-03-11 12:24:00,
2013-03-11 08:29:00,33.2,31.1,30.23,SE,132,0.0,0.0,92,0.00,CLR,,0.00,WeatherDisplay:10.37,2013-03-11 12:29:00,
2013-03-11 08:34:00,33.1,31.0,30.23,SE,132,1.1,0.0,92,0.00,CLR,,0.00,WeatherDisplay:10.37,2013-03-11 12:34:00,
2013-03-11 08:39:00,33.7,31.6,30.23,SE,132,0.0,0.0,92,0.00,CLR,,0.00,WeatherDisplay:10.37,2013-03-11 12:39:00,
2013-03-11 08:44:00,33.7,31.6,30.23,SE,132,0.0,0.0,92,0.00,CLR,,0.00,WeatherDisplay:10.37,2013-03-11 12:44:00,
2013-03-11 08:49:00,33.2,31.1,30.23,SE,132,0.0,0.0,92,0.00,CLR,,0.00,WeatherDisplay:10.37,2013-03-11 12:49:00,
2013-03-11 08:54:00,33.7,31.6,30.23,SE,132,0.0,0.0,92,0.00,CLR,,0.00,WeatherDisplay:10.37,2013-03-11 12:54:00,
2013-03-11 08:59:00,34.3,32.2,30.23,SE,132,0.0,0.0,92,0.00,CLR,,0.00,WeatherDisplay:10.37,2013-03-11 12:59:00,
2013-03-11 09:04:00,34.0,30.8,30.22,SE,132,0.0,0.0,88,0.00,CLR,,0.00,WeatherDisplay:10.37,2013-03-11 13:04:00,
2013-03-11 09:09:00,34.0,30.8,30.22,SE,132,0.0,0.0,88,0.00,CLR,,0.00,WeatherDisplay:10.37,2013-03-11 13:09:00,
2013-03-11 09:14:00,34.3,31.1,30.22,SE,132,0.0,0.0,88,0.00,CLR,,0.00,WeatherDisplay:10.37,2013-03-11 13:14:00,
2013-03-11 09:19:00,34.7,31.5,30.22,SE,132,0.0,0.0,88,0.00,CLR,,0.00,WeatherDisplay:10.37,2013-03-11 13:19:00,
2013-03-11 09:24:00,36.0,32.8,30.22,SE,132,0.0,0.0,88,0.00,CLR,,0.00,WeatherDisplay:10.37,2013-03-11 13:24:00,
2013-03-11 09:29:00,37.0,33.8,30.22,SE,132,0.0,0.0,88,0.00,CLR,,0.00,WeatherDisplay:10.37,2013-03-11 13:29:00,
2013-03-11 09:34:00,36.7,33.5,30.22,SE,132,1.1,1.1,88,0.00,CLR,,0.00,WeatherDisplay:10.37,2013-03-11 13:34:00,
2013-03-11 09:39:00,37.3,34.1,30.22,SE,132,1.1,0.0,88,0.00,CLR,,0.00,WeatherDisplay:10.37,2013-03-11 13:39:00,
2013-03-11 09:44:00,38.2,35.0,30.22,SE,132,1.1,1.1,88,0.00,CLR,,0.00,WeatherDisplay:10.37,2013-03-11 13:44:00,
2013-03-11 09:49:00,38.7,35.5,30.22,SE,132,1.1,1.1,88,0.00,CLR,,0.00,WeatherDisplay:10.37,2013-03-11 13:49:00,
2013-03-11 09:54:00,39.2,35.9,30.22,SE,132,1.1,1.1,88,0.00,CLR,,0.00,WeatherDisplay:10.37,2013-03-11 13:54:00,
2013-03-11 09:59:00,39.7,36.4,30.22,SE,132,1.1,1.1,88,0.00,CLR,,0.00,WeatherDisplay:10.37,2013-03-11 13:59:00,
2013-03-11 10:04:00,38.8,32.5,30.22,SE,132,0.0,0.0,78,0.00,CLR,,0.00,WeatherDisplay:10.37,2013-03-11 14:04:00,
2013-03-11 10:09:00,40.6,34.3,30.22,SE,132,1.0,0.0,78,0.00,CLR,,0.00,WeatherDisplay:10.37,2013-03-11 14:09:00,
2013-03-11 10:14:00,39.1,32.8,30.22,SE,132,0.0,0.2,78,0.00,CLR,,0.00,WeatherDisplay:10.37,2013-03-11 14:14:00,
2013-03-11 10:19:00,39.5,33.2,30.22,SE,132,0.0,0.0,78,0.00,CLR,,0.00,WeatherDisplay:10.37,2013-03-11 14:19:00,
2013-03-11 10:24:00,40.0,33.7,30.22,SE,132,0.0,0.0,78,0.00,CLR,,0.00,WeatherDisplay:10.37,2013-03-11 14:24:00,
2013-03-11 10:29:00,41.3,35.0,30.22,SE,132,1.0,0.0,78,0.00,CLR,,0.00,WeatherDisplay:10.37,2013-03-11 14:29:00,
2013-03-11 10:34:00,41.9,35.5,30.22,SE,132,1.1,0.0,78,0.00,CLR,,0.00,WeatherDisplay:10.37,2013-03-11 14:34:00,
2013-03-11 10:39:00,42.3,35.9,30.22,SE,132,1.1,0.0,78,0.00,CLR,,0.00,WeatherDisplay:10.37,2013-03-11 14:39:00,
2013-03-11 10:44:00,42.9,36.5,30.22,SE,132,0.0,0.0,78,0.00,CLR,,0.00,WeatherDisplay:10.37,2013-03-11 14:44:00,
2013-03-11 10:49:00,42.8,36.4,30.22,SE,132,1.1,0.0,78,0.00,CLR,,0.00,WeatherDisplay:10.37,2013-03-11 14:49:00,
2013-03-11 10:54:00,44.2,37.8,30.22,SE,132,0.0,0.0,78,0.00,CLR,,0.00,WeatherDisplay:10.37,2013-03-11 14:54:00,
2013-03-11 10:59:00,45.2,38.7,30.22,SW,229,1.1,0.0,78,0.00,CLR,,0.00,WeatherDisplay:10.37,2013-03-11 14:59:00,
2013-03-11 11:04:00,45.2,36.7,30.22,SW,230,2.3,2.3,72,0.00,CLR,,0.00,WeatherDisplay:10.37,2013-03-11 15:04:00,
2013-03-11 11:09:00,44.4,35.9,30.22,SW,228,0.0,0.2,72,0.00,CLR,,0.00,WeatherDisplay:10.37,2013-03-11 15:09:00,
2013-03-11 11:14:00,44.3,35.8,30.22,SW,228,0.0,0.1,72,0.00,CLR,,0.00,WeatherDisplay:10.37,2013-03-11 15:14:00,
2013-03-11 11:19:00,44.2,35.7,30.22,SW,228,0.0,0.0,72,0.00,CLR,,0.00,WeatherDisplay:10.37,2013-03-11 15:19:00,
2013-03-11 11:24:00,45.5,37.0,30.22,SW,229,1.1,1.3,72,0.00,CLR,,0.00,WeatherDisplay:10.37,2013-03-11 15:24:00,
2013-03-11 11:29:00,45.1,36.6,30.22,SSW,203,2.3,0.0,72,0.00,CLR,,0.00,WeatherDisplay:10.37,2013-03-11 15:29:00,
2013-03-11 11:34:00,44.6,36.1,30.22,SSW,203,1.1,1.1,72,0.00,CLR,,0.00,WeatherDisplay:10.37,2013-03-11 15:34:00,
2013-03-11 11:39:00,43.8,35.4,30.22,SW,225,1.1,1.4,72,0.00,CLR,,0.00,WeatherDisplay:10.37,2013-03-11 15:39:00,
2013-03-11 11:44:00,44.8,36.3,30.22,SW,225,1.1,1.1,72,0.00,CLR,,0.00,WeatherDisplay:10.37,2013-03-11 15:44:00,
2013-03-11 11:49:00,45.3,36.8,30.22,WSW,240,3.5,3.5,72,0.00,CLR,,0.00,WeatherDisplay:10.37,2013-03-11 15:49:00,
2013-03-11 11:54:00,46.4,37.9,30.22,WSW,241,0.0,2.0,72,0.00,CLR,,0.00,WeatherDisplay:10.37,2013-03-11 15:54:00,
2013-03-11 11:59:00,46.1,37.6,30.22,SW,236,0.0,3.0,72,0.00,CLR,,0.00,WeatherDisplay:10.37,2013-03-11 15:59:00,
2013-03-11 12:04:00,46.3,34.8,30.21,South,186,3.5,3.5,64,0.00,CLR,,0.00,WeatherDisplay:10.37,2013-03-11 16:04:00,
2013-03-11 12:09:00,45.3,33.8,30.21,SSW,200,1.1,1.1,64,0.00,CLR,,0.00,WeatherDisplay:10.37,2013-03-11 16:09:00,
2013-03-11 12:14:00,45.6,34.1,30.21,SSW,211,3.5,3.5,64,0.00,CLR,,0.00,WeatherDisplay:10.37,2013-03-11 16:14:00,
2013-03-11 12:19:00,45.7,34.2,30.21,SSW,211,2.3,2.3,64,0.00,CLR,,0.00,WeatherDisplay:10.37,2013-03-11 16:19:00,
2013-03-11 12:24:00,45.7,34.2,30.21,SSW,212,1.1,0.0,64,0.00,CLR,,0.00,WeatherDisplay:10.37,2013-03-11 16:24:00,
2013-03-11 12:29:00,45.8,34.3,30.21,SSW,213,2.3,2.3,64,0.00,CLR,,0.00,WeatherDisplay:10.37,2013-03-11 16:29:00,
2013-03-11 12:34:00,46.3,34.8,30.21,SSW,213,1.1,1.1,64,0.00,CLR,,0.00,WeatherDisplay:10.37,2013-03-11 16:34:00,
2013-03-11 12:39:00,45.7,34.2,30.21,SW,231,2.3,2.3,64,0.00,CLR,,0.00,WeatherDisplay:10.37,2013-03-11 16:39:00,
2013-03-11 12:44:00,46.2,34.7,30.21,SSW,212,2.3,2.3,64,0.00,CLR,,0.00,WeatherDisplay:10.37,2013-03-11 16:44:00,
2013-03-11 12:49:00,46.5,35.0,30.21,SSW,212,1.1,1.1,64,0.00,CLR,,0.00,WeatherDisplay:10.37,2013-03-11 16:49:00,
2013-03-11 12:54:00,45.9,34.4,30.21,SW,221,3.5,3.5,64,0.00,CLR,,0.00,WeatherDisplay:10.37,2013-03-11 16:54:00,
2013-03-11 12:59:00,47.4,35.8,30.21,SW,220,1.1,1.1,64,0.00,CLR,,0.00,WeatherDisplay:10.37,2013-03-11 16:59:00,
2013-03-11 13:04:00,48.1,32.2,30.20,SW,222,0.0,0.0,54,0.00,CLR,,0.00,WeatherDisplay:10.37,2013-03-11 17:04:00,
2013-03-11 13:09:00,48.5,32.6,30.20,SSE,151,2.3,2.3,54,0.00,CLR,,0.00,WeatherDisplay:10.37,2013-03-11 17:09:00,
2013-03-11 13:14:00,47.4,31.6,30.20,SSE,150,1.1,1.1,54,0.00,CLR,,0.00,WeatherDisplay:10.37,2013-03-11 17:14:00,
2013-03-11 13:19:00,48.2,32.3,30.20,SSE,150,1.1,0.0,54,0.00,CLR,,0.00,WeatherDisplay:10.37,2013-03-11 17:19:00,
2013-03-11 13:24:00,49.0,33.1,30.20,SSE,152,3.5,3.5,54,0.00,CLR,,0.00,WeatherDisplay:10.37,2013-03-11 17:24:00,
2013-03-11 13:29:00,49.1,33.2,30.20,ESE,105,3.5,3.5,54,0.00,CLR,,0.00,WeatherDisplay:10.37,2013-03-11 17:29:00,
2013-03-11 13:34:00,48.2,32.3,30.20,ESE,105,1.1,1.1,54,0.00,CLR,,0.00,WeatherDisplay:10.37,2013-03-11 17:34:00,
2013-03-11 13:39:00,48.9,33.0,30.20,SE,129,1.1,1.1,54,0.00,CLR,,0.00,WeatherDisplay:10.37,2013-03-11 17:39:00,
2013-03-11 13:44:00,47.7,31.9,30.20,SE,129,0.0,0.0,54,0.00,CLR,,0.00,WeatherDisplay:10.37,2013-03-11 17:44:00,
2013-03-11 13:49:00,47.4,31.6,30.20,SE,129,1.1,0.0,54,0.00,CLR,,0.00,WeatherDisplay:10.37,2013-03-11 17:49:00,
2013-03-11 13:54:00,48.5,32.6,30.20,SE,129,1.1,0.0,54,0.00,CLR,,0.00,WeatherDisplay:10.37,2013-03-11 17:54:00,
2013-03-11 13:59:00,48.6,32.7,30.20,SE,140,1.1,1.1,54,0.00,CLR,,0.00,WeatherDisplay:10.37,2013-03-11 17:59:00,
2013-03-11 14:04:00,48.7,30.4,30.17,SE,138,1.0,0.0,49,0.00,FEW,,0.00,WeatherDisplay:10.37,2013-03-11 18:04:00,
2013-03-11 14:09:00,48.6,30.3,30.17,SE,139,1.1,1.1,49,0.00,FEW,,0.00,WeatherDisplay:10.37,2013-03-11 18:09:00,
2013-03-11 14:14:00,48.6,30.3,30.17,SE,140,0.0,0.0,49,0.00,FEW,,0.00,WeatherDisplay:10.37,2013-03-11 18:14:00,
2013-03-11 14:19:00,48.6,30.3,30.17,SW,235,1.1,0.0,49,0.00,FEW,,0.00,WeatherDisplay:10.37,2013-03-11 18:19:00,
2013-03-11 14:24:00,49.3,30.9,30.17,SW,233,0.0,0.0,49,0.00,FEW,,0.00,WeatherDisplay:10.37,2013-03-11 18:24:00,
2013-03-11 14:29:00,49.2,30.8,30.17,South,185,2.3,2.3,49,0.00,FEW,,0.00,WeatherDisplay:10.37,2013-03-11 18:29:00,
2013-03-11 14:34:00,48.9,30.6,30.17,South,187,2.3,2.3,49,0.00,FEW,,0.00,WeatherDisplay:10.37,2013-03-11 18:34:00,
2013-03-11 14:39:00,49.2,30.8,30.17,South,187,0.0,0.0,49,0.00,FEW,,0.00,WeatherDisplay:10.37,2013-03-11 18:39:00,
2013-03-11 14:44:00,49.0,30.7,30.17,South,187,1.1,1.1,49,0.00,FEW,,0.00,WeatherDisplay:10.37,2013-03-11 18:44:00,
2013-03-11 14:49:00,49.5,31.1,30.17,South,187,1.1,0.0,49,0.00,FEW,,0.00,WeatherDisplay:10.37,2013-03-11 18:49:00,
2013-03-11 14:54:00,49.5,31.1,30.17,South,183,0.0,0.0,49,0.00,FEW,,0.00,WeatherDisplay:10.37,2013-03-11 18:54:00,
2013-03-11 15:00:00,49.0,30.7,30.17,South,177,1.1,1.1,49,0.00,FEW,,0.00,WeatherDisplay:10.37,2013-03-11 19:00:00,
2013-03-11 15:05:00,49.3,30.9,30.16,South,177,0.0,0.0,49,0.00,CLR,,0.00,WeatherDisplay:10.37,2013-03-11 19:05:00,
2013-03-11 15:10:00,49.4,31.0,30.16,South,177,0.0,0.0,49,0.00,CLR,,0.00,WeatherDisplay:10.37,2013-03-11 19:10:00,
2013-03-11 15:15:00,48.9,30.6,30.16,SSE,168,1.1,1.1,49,0.00,CLR,,0.00,WeatherDisplay:10.37,2013-03-11 19:15:00,
2013-03-11 15:20:00,49.0,30.7,30.16,SSE,168,0.0,0.1,49,0.00,CLR,,0.00,WeatherDisplay:10.37,2013-03-11 19:20:00,
2013-03-11 15:25:00,48.8,30.5,30.16,East,101,1.1,1.1,49,0.00,CLR,,0.00,WeatherDisplay:10.37,2013-03-11 19:25:00,
2013-03-11 15:30:00,48.5,30.2,30.16,East,101,0.0,0.0,49,0.00,CLR,,0.00,WeatherDisplay:10.37,2013-03-11 19:30:00,
2013-03-11 15:35:00,48.7,30.4,30.16,East,101,0.0,0.1,49,0.00,CLR,,0.00,WeatherDisplay:10.37,2013-03-11 19:35:00,
2013-03-11 15:40:00,48.3,30.0,30.16,East,101,0.0,0.0,49,0.00,CLR,,0.00,WeatherDisplay:10.37,2013-03-11 19:40:00,
2013-03-11 15:45:00,47.6,29.4,30.16,East,101,0.0,0.0,49,0.00,CLR,,0.00,WeatherDisplay:10.37,2013-03-11 19:45:00,
2013-03-11 15:50:00,47.7,29.5,30.16,East,101,0.0,0.0,49,0.00,CLR,,0.00,WeatherDisplay:10.37,2013-03-11 19:50:00,
2013-03-11 15:55:00,47.3,29.1,30.16,ESE,104,2.3,2.3,49,0.00,CLR,,0.00,WeatherDisplay:10.37,2013-03-11 19:55:00,
2013-03-11 16:00:00,47.2,29.0,30.16,ESE,104,0.0,0.0,49,0.00,CLR,,0.00,WeatherDisplay:10.37,2013-03-11 20:00:00,
2013-03-11 16:05:00,46.9,29.7,30.15,ESE,104,1.1,1.1,51,0.00,FEW,,0.00,WeatherDisplay:10.37,2013-03-11 20:05:00,
2013-03-11 16:10:00,46.4,29.2,30.15,ESE,104,0.0,0.0,51,0.00,FEW,,0.00,WeatherDisplay:10.37,2013-03-11 20:10:00,
2013-03-11 16:15:00,46.1,29.0,30.15,ESE,104,0.0,0.0,51,0.00,FEW,,0.00,WeatherDisplay:10.37,2013-03-11 20:15:00,
2013-03-11 16:20:00,46.1,29.0,30.15,ESE,105,0.0,0.0,51,0.00,FEW,,0.00,WeatherDisplay:10.37,2013-03-11 20:20:00,
2013-03-11 16:25:00,46.0,28.9,30.15,ESE,105,0.0,0.0,51,0.00,FEW,,0.00,WeatherDisplay:10.37,2013-03-11 20:25:00,
2013-03-11 16:30:00,46.0,28.9,30.15,ESE,105,0.0,0.0,51,0.00,FEW,,0.00,WeatherDisplay:10.37,2013-03-11 20:30:00,
2013-03-11 16:35:00,46.4,29.2,30.15,ESE,105,0.0,0.0,51,0.00,FEW,,0.00,WeatherDisplay:10.37,2013-03-11 20:35:00,
2013-03-11 16:40:00,46.5,29.3,30.15,ESE,105,1.1,1.1,51,0.00,FEW,,0.00,WeatherDisplay:10.37,2013-03-11 20:40:00,
2013-03-11 16:45:00,46.2,29.1,30.15,ESE,105,0.0,0.0,51,0.00,FEW,,0.00,WeatherDisplay:10.37,2013-03-11 20:45:00,
2013-03-11 16:50:00,45.9,28.8,30.15,ESE,105,1.0,1.0,51,0.00,FEW,,0.00,WeatherDisplay:10.37,2013-03-11 20:50:00,
2013-03-11 16:55:00,45.8,28.7,30.15,ESE,105,1.1,1.1,51,0.00,FEW,,0.00,WeatherDisplay:10.37,2013-03-11 20:55:00,
2013-03-11 17:00:00,45.6,28.5,30.15,ESE,105,1.0,1.0,51,0.00,FEW,,0.00,WeatherDisplay:10.37,2013-03-11 21:00:00,
2013-03-11 17:05:00,45.8,29.6,30.14,ESE,105,0.0,0.0,53,0.00,OVC,,0.00,WeatherDisplay:10.37,2013-03-11 21:05:00,
2013-03-11 17:10:00,45.8,29.6,30.14,ESE,105,0.0,0.0,53,0.00,OVC,,0.00,WeatherDisplay:10.37,2013-03-11 21:10:00,
2013-03-11 17:15:00,45.7,29.5,30.14,ESE,105,0.0,0.0,53,0.00,OVC,,0.00,WeatherDisplay:10.37,2013-03-11 21:15:00,
2013-03-11 17:20:00,45.6,29.4,30.14,WSW,244,1.1,0.0,53,0.00,OVC,,0.00,WeatherDisplay:10.37,2013-03-11 21:20:00,
2013-03-11 17:25:00,45.3,29.2,30.14,WSW,244,1.1,0.0,53,0.00,OVC,,0.00,WeatherDisplay:10.37,2013-03-11 21:25:00,
2013-03-11 17:30:00,45.4,29.3,30.14,WSW,244,0.0,0.0,53,0.00,OVC,,0.00,WeatherDisplay:10.37,2013-03-11 21:30:00,
2013-03-11 17:35:00,45.3,29.2,30.14,WSW,239,1.1,0.0,53,0.00,OVC,,0.00,WeatherDisplay:10.37,2013-03-11 21:35:00,
2013-03-11 17:40:00,44.9,28.8,30.14,WSW,239,0.0,0.0,53,0.00,OVC,,0.00,WeatherDisplay:10.37,2013-03-11 21:40:00,
2013-03-11 17:45:00,44.7,28.6,30.14,SW,231,0.0,0.0,53,0.00,OVC,,0.00,WeatherDisplay:10.37,2013-03-11 21:45:00,
2013-03-11 17:50:00,44.6,28.5,30.14,SW,230,0.0,0.0,53,0.00,OVC,,0.00,WeatherDisplay:10.37,2013-03-11 21:50:00,
2013-03-11 17:55:00,44.6,28.5,30.14,SW,225,1.1,1.1,53,0.00,OVC,,0.00,WeatherDisplay:10.37,2013-03-11 21:55:00,
2013-03-11 18:00:00,44.4,28.3,30.14,SW,225,0.0,0.0,53,0.00,OVC,,0.00,WeatherDisplay:10.37,2013-03-11 22:00:00,
2013-03-11 18:05:00,44.1,28.0,30.13,SW,224,0.0,0.0,53,0.00,BKN,,0.00,WeatherDisplay:10.37,2013-03-11 22:05:00,
2013-03-11 18:10:00,43.9,27.9,30.13,SW,224,1.1,0.0,53,0.00,BKN,,0.00,WeatherDisplay:10.37,2013-03-11 22:10:00,
2013-03-11 18:15:00,43.7,27.7,30.13,SSE,148,0.0,0.0,53,0.00,BKN,,0.00,WeatherDisplay:10.37,2013-03-11 22:15:00,
2013-03-11 18:20:00,43.4,27.4,30.13,SSE,148,0.0,0.0,53,0.00,BKN,,0.00,WeatherDisplay:10.37,2013-03-11 22:20:00,
2013-03-11 18:25:00,43.4,27.4,30.13,SSE,148,0.0,0.0,53,0.00,BKN,,0.00,WeatherDisplay:10.37,2013-03-11 22:25:00,
2013-03-11 18:30:00,43.3,27.3,30.13,SSE,148,0.0,0.0,53,0.00,BKN,,0.00,WeatherDisplay:10.37,2013-03-11 22:30:00,
2013-03-11 18:35:00,43.3,27.3,30.13,SSE,148,0.0,0.0,53,0.00,BKN,,0.00,WeatherDisplay:10.37,2013-03-11 22:35:00,
2013-03-11 18:40:00,43.0,27.0,30.13,SSE,148,0.0,0.1,53,0.00,BKN,,0.00,WeatherDisplay:10.37,2013-03-11 22:40:00,
2013-03-11 18:45:00,43.0,27.0,30.13,SSE,148,0.0,0.0,53,0.00,BKN,,0.00,WeatherDisplay:10.37,2013-03-11 22:45:00,
2013-03-11 18:50:00,42.9,26.9,30.13,SSE,150,1.1,1.1,53,0.00,BKN,,0.00,WeatherDisplay:10.37,2013-03-11 22:50:00,
2013-03-11 18:55:00,42.7,26.7,30.13,SSE,150,0.0,0.0,53,0.00,BKN,,0.00,WeatherDisplay:10.37,2013-03-11 22:55:00,
2013-03-11 19:00:00,42.5,26.6,30.13,SSE,150,0.0,0.0,53,0.00,BKN,,0.00,WeatherDisplay:10.37,2013-03-11 23:00:00,
2013-03-11 19:05:00,42.7,26.7,30.12,SSE,150,0.0,0.0,53,0.00,CLR,,0.00,WeatherDisplay:10.37,2013-03-11 23:05:00,
2013-03-11 19:10:00,42.9,26.9,30.12,SSE,150,1.1,0.0,53,0.00,CLR,,0.00,WeatherDisplay:10.37,2013-03-11 23:10:00,
2013-03-11 19:15:00,42.6,26.6,30.12,SSE,150,0.0,0.0,53,0.00,CLR,,0.00,WeatherDisplay:10.37,2013-03-11 23:15:00,
2013-03-11 19:20:00,42.4,26.5,30.12,SSE,150,0.0,0.0,53,0.00,CLR,,0.00,WeatherDisplay:10.37,2013-03-11 23:20:00,
2013-03-11 19:25:00,42.5,26.6,30.12,SSE,150,0.0,0.0,53,0.00,CLR,,0.00,WeatherDisplay:10.37,2013-03-11 23:25:00,
2013-03-11 19:30:00,42.3,26.4,30.12,SSE,150,0.0,0.0,53,0.00,CLR,,0.00,WeatherDisplay:10.37,2013-03-11 23:30:00,
2013-03-11 19:35:00,41.6,25.7,30.12,SSE,150,0.0,0.0,53,0.00,CLR,,0.00,WeatherDisplay:10.37,2013-03-11 23:35:00,
2013-03-11 19:40:00,39.9,24.1,30.12,SSE,150,0.0,0.0,53,0.00,CLR,,0.00,WeatherDisplay:10.37,2013-03-11 23:40:00,
2013-03-11 19:45:00,39.9,24.1,30.12,SSE,150,0.0,0.0,53,0.00,CLR,,0.00,WeatherDisplay:10.37,2013-03-11 23:45:00,
2013-03-11 19:50:00,39.8,24.0,30.12,SSE,150,0.0,0.0,53,0.00,CLR,,0.00,WeatherDisplay:10.37,2013-03-11 23:50:00,
2013-03-11 19:55:00,40.1,24.3,30.12,SSE,150,0.0,0.0,53,0.00,CLR,,0.00,WeatherDisplay:10.37,2013-03-11 23:55:00,
2013-03-11 20:00:00,40.6,24.8,30.12,SSE,150,0.0,0.0,53,0.00,CLR,,0.00,WeatherDisplay:10.37,2013-03-12 00:00:00,
2013-03-11 20:05:00,41.0,26.1,30.13,SSE,150,0.0,0.0,55,0.00,CLR,,0.00,WeatherDisplay:10.37,2013-03-12 00:05:00,
2013-03-11 20:10:00,41.3,26.3,30.13,SSE,150,0.0,0.0,55,0.00,CLR,,0.00,WeatherDisplay:10.37,2013-03-12 00:10:00,
2013-03-11 20:15:00,41.5,26.5,30.13,SSE,150,0.0,0.0,55,0.00,CLR,,0.00,WeatherDisplay:10.37,2013-03-12 00:15:00,
2013-03-11 20:20:00,41.3,26.3,30.13,SSE,150,0.0,0.0,55,0.00,CLR,,0.00,WeatherDisplay:10.37,2013-03-12 00:20:00,
2013-03-11 20:25:00,41.2,26.2,30.13,SSE,150,0.0,0.0,55,0.00,CLR,,0.00,WeatherDisplay:10.37,2013-03-12 00:25:00,
2013-03-11 20:30:00,41.3,26.3,30.13,SSE,150,0.0,0.0,55,0.00,CLR,,0.00,WeatherDisplay:10.37,2013-03-12 00:30:00,
2013-03-11 20:35:00,41.4,26.4,30.13,SSE,150,0.0,0.0,55,0.00,CLR,,0.00,WeatherDisplay:10.37,2013-03-12 00:35:00,
2013-03-11 20:40:00,41.2,26.2,30.13,SSE,150,0.0,0.0,55,0.00,CLR,,0.00,WeatherDisplay:10.37,2013-03-12 00:40:00,
2013-03-11 20:45:00,41.0,26.1,30.13,SSE,150,0.0,0.0,55,0.00,CLR,,0.00,WeatherDisplay:10.37,2013-03-12 00:45:00,
2013-03-11 20:50:00,41.0,26.1,30.13,SSE,150,0.0,0.0,55,0.00,CLR,,0.00,WeatherDisplay:10.37,2013-03-12 00:50:00,
2013-03-11 20:55:00,41.0,26.1,30.13,SSE,150,1.1,0.0,55,0.00,CLR,,0.00,WeatherDisplay:10.37,2013-03-12 00:55:00,
2013-03-11 21:00:00,40.9,26.0,30.13,SSE,150,0.0,0.0,55,0.00,CLR,,0.00,WeatherDisplay:10.37,2013-03-12 01:00:00,
2013-03-11 21:05:00,40.6,30.5,30.13,SSE,150,0.0,0.0,67,0.00,CLR,,0.00,WeatherDisplay:10.37,2013-03-12 01:05:00,
2013-03-11 21:10:00,38.2,28.2,30.13,SSE,150,1.1,1.1,67,0.00,CLR,,0.00,WeatherDisplay:10.37,2013-03-12 01:10:00,
2013-03-11 21:15:00,36.2,26.3,30.13,SSE,150,0.0,0.0,67,0.00,CLR,,0.00,WeatherDisplay:10.37,2013-03-12 01:15:00,
2013-03-11 21:20:00,38.1,28.1,30.13,SSE,150,0.0,0.0,67,0.00,CLR,,0.00,WeatherDisplay:10.37,2013-03-12 01:20:00,
2013-03-11 21:25:00,38.9,24.1,30.13,SSE,150,1.1,0.0,55,0.00,CLR,,0.00,WeatherDisplay:10.37,2013-03-12 01:25:00,
2013-03-11 21:30:00,39.1,24.3,30.13,SSE,150,0.0,0.1,55,0.00,CLR,,0.00,WeatherDisplay:10.37,2013-03-12 01:30:00,
2013-03-11 21:35:00,38.6,28.6,30.13,SSE,150,0.0,0.0,67,0.00,CLR,,0.00,WeatherDisplay:10.37,2013-03-12 01:35:00,
2013-03-11 21:40:00,38.6,28.6,30.13,SSE,151,0.0,0.0,67,0.00,CLR,,0.00,WeatherDisplay:10.37,2013-03-12 01:40:00,
2013-03-11 21:45:00,38.6,28.6,30.13,SSE,151,1.1,1.1,67,0.00,CLR,,0.00,WeatherDisplay:10.37,2013-03-12 01:45:00,
2013-03-11 21:50:00,38.9,28.9,30.13,SSE,151,1.1,0.0,67,0.00,CLR,,0.00,WeatherDisplay:10.37,2013-03-12 01:50:00,
2013-03-11 21:55:00,39.2,29.2,30.13,SSE,151,1.1,1.1,67,0.00,CLR,,0.00,WeatherDisplay:10.37,2013-03-12 01:55:00,
2013-03-11 22:00:00,39.4,29.3,30.13,SSE,150,1.1,1.1,67,0.00,CLR,,0.00,WeatherDisplay:10.37,2013-03-12 02:00:00,
2013-03-11 22:05:00,39.6,32.3,30.12,SSE,150,1.1,1.1,75,0.00,CLR,,0.00,WeatherDisplay:10.37,2013-03-12 02:05:00,
2013-03-11 22:10:00,39.5,32.2,30.12,SSE,150,0.0,0.0,75,0.00,CLR,,0.00,WeatherDisplay:10.37,2013-03-12 02:10:00,
2013-03-11 22:15:00,39.6,32.3,30.12,SSE,150,0.0,0.1,75,0.00,CLR,,0.00,WeatherDisplay:10.37,2013-03-12 02:15:00,
2013-03-11 22:20:00,39.5,32.2,30.12,SSE,150,0.0,0.1,75,0.00,CLR,,0.00,WeatherDisplay:10.37,2013-03-12 02:20:00,
2013-03-11 22:25:00,39.4,32.1,30.12,SSE,150,1.1,1.1,75,0.00,CLR,,0.00,WeatherDisplay:10.37,2013-03-12 02:25:00,
2013-03-11 22:30:00,39.4,32.1,30.12,SSE,150,1.1,1.1,75,0.00,CLR,,0.00,WeatherDisplay:10.37,2013-03-12 02:30:00,
2013-03-11 22:35:00,39.2,31.9,30.12,SSE,150,0.0,0.1,75,0.00,CLR,,0.00,WeatherDisplay:10.37,2013-03-12 02:35:00,
2013-03-11 22:40:00,39.0,31.7,30.12,SSE,150,0.0,0.0,75,0.00,CLR,,0.00,WeatherDisplay:10.37,2013-03-12 02:40:00,
2013-03-11 22:45:00,39.3,32.0,30.12,SSE,150,1.1,0.0,75,0.00,CLR,,0.00,WeatherDisplay:10.37,2013-03-12 02:45:00,
2013-03-11 22:50:00,39.0,31.7,30.12,SSE,150,1.1,0.0,75,0.00,CLR,,0.00,WeatherDisplay:10.37,2013-03-12 02:50:00,
2013-03-11 22:55:00,39.1,31.8,30.12,SSE,150,0.0,0.0,75,0.00,CLR,,0.00,WeatherDisplay:10.37,2013-03-12 02:55:00,
2013-03-11 23:00:00,39.0,31.7,30.12,SSE,150,0.0,0.0,75,0.00,CLR,,0.00,WeatherDisplay:10.37,2013-03-12 03:00:00,
2013-03-11 23:05:00,38.8,33.8,30.12,SSE,150,0.0,0.0,82,0.00,CLR,,0.00,WeatherDisplay:10.37,2013-03-12 03:05:00,
2013-03-11 23:10:00,38.7,33.7,30.12,SSE,150,0.0,0.0,82,0.00,CLR,,0.00,WeatherDisplay:10.37,2013-03-12 03:10:00,
2013-03-11 23:15:00,38.4,33.4,30.12,SSE,150,0.0,0.0,82,0.00,CLR,,0.00,WeatherDisplay:10.37,2013-03-12 03:15:00,
2013-03-11 23:20:00,37.6,32.6,30.12,SSE,150,0.0,0.0,82,0.00,CLR,,0.00,WeatherDisplay:10.37,2013-03-12 03:20:00,
2013-03-11 23:25:00,37.5,32.5,30.12,SSE,150,0.0,0.0,82,0.00,CLR,,0.00,WeatherDisplay:10.37,2013-03-12 03:25:00,
2013-03-11 23:30:00,37.1,32.1,30.12,SSE,150,0.0,0.0,82,0.00,CLR,,0.00,WeatherDisplay:10.37,2013-03-12 03:30:00,
2013-03-11 23:35:00,37.1,32.1,30.12,SSE,150,0.0,0.0,82,0.00,CLR,,0.00,WeatherDisplay:10.37,2013-03-12 03:35:00,
2013-03-11 23:40:00,36.8,31.8,30.12,SSE,150,0.0,0.0,82,0.00,CLR,,0.00,WeatherDisplay:10.37,2013-03-12 03:40:00,
2013-03-11 23:45:00,37.2,32.2,30.12,SSE,150,0.0,0.0,82,0.00,CLR,,0.00,WeatherDisplay:10.37,2013-03-12 03:45:00,
2013-03-11 23:50:00,37.1,32.1,30.12,SSE,150,0.0,0.0,82,0.00,CLR,,0.00,WeatherDisplay:10.37,2013-03-12 03:50:00,
2013-03-11 23:55:00,36.4,31.4,30.12,SSE,150,0.0,0.0,82,0.00,CLR,,0.00,WeatherDisplay:10.37,2013-03-12 03:55:00,